Time,TemperatureF,DewpointF,PressureIn,WindDirection,WindDirectionDegrees,WindSpeedMPH,WindSpeedGustMPH,Humidity,HourlyPrecipIn,Conditions,Clouds,dailyrainin,SoftwareType,DateUTC
2013-04-30 00:02:00,60.8,54.0,29.98,SSW,201,0.0,3.0,79,0.00,,,0.00,weatherlink.com 1.10,2013-04-30 04:02:00,
2013-04-30 00:17:00,60.5,54.0,29.98,South,186,3.0,5.0,80,0.00,,,0.00,weatherlink.com 1.10,2013-04-30 04:17:00,
2013-04-30 00:32:00,60.5,54.0,29.99,South,179,1.0,3.0,80,0.00,,,0.00,weatherlink.com 1.10,2013-04-30 04:32:00,
2013-04-30 00:47:00,60.1,54.0,29.99,South,185,0.0,4.0,81,0.00,,,0.00,weatherlink.com 1.10,2013-04-30 04:47:00,
2013-04-30 01:02:00,59.6,54.0,29.99,South,170,1.0,5.0,81,0.00,,,0.00,weatherlink.com 1.10,2013-04-30 05:02:00,
2013-04-30 01:17:00,59.4,54.0,30.00,SSE,164,0.0,5.0,82,0.00,,,0.00,weatherlink.com 1.10,2013-04-30 05:17:00,
2013-04-30 01:32:00,59.0,54.0,30.00,SSE,153,2.0,3.0,82,0.00,,,0.00,weatherlink.com 1.10,2013-04-30 05:32:00,
2013-04-30 01:47:00,58.8,54.0,30.00,South,179,1.0,3.0,83,0.00,,,0.00,weatherlink.com 1.10,2013-04-30 05:47:00,
2013-04-30 02:02:00,58.6,54.0,30.00,SW,215,0.0,5.0,83,0.00,,,0.00,weatherlink.com 1.10,2013-04-30 06:02:00,
2013-04-30 02:17:00,58.2,53.0,30.00,SW,215,0.0,5.0,83,0.00,,,0.00,weatherlink.com 1.10,2013-04-30 06:17:00,
2013-04-30 02:32:00,57.6,53.0,30.00,SW,215,0.0,2.0,84,0.00,,,0.00,weatherlink.com 1.10,2013-04-30 06:32:00,
2013-04-30 02:47:00,57.0,53.0,30.00,South,191,1.0,5.0,85,0.00,,,0.00,weatherlink.com 1.10,2013-04-30 06:47:00,
2013-04-30 03:02:00,56.6,53.0,30.00,SSE,161,0.0,4.0,86,0.00,,,0.00,weatherlink.com 1.10,2013-04-30 07:02:00,
2013-04-30 03:17:00,55.8,52.0,30.00,SSE,161,1.0,3.0,86,0.00,,,0.00,weatherlink.com 1.10,2013-04-30 07:17:00,
2013-04-30 03:32:00,55.4,52.0,30.01,SSE,157,0.0,2.0,87,0.00,,,0.00,weatherlink.com 1.10,2013-04-30 07:32:00,
2013-04-30 03:48:00,54.8,51.0,30.01,SSE,157,0.0,1.0,88,0.00,,,0.00,weatherlink.com 1.10,2013-04-30 07:48:00,
2013-04-30 04:03:00,54.2,51.0,30.02,SSE,157,0.0,1.0,89,0.00,,,0.00,weatherlink.com 1.10,2013-04-30 08:03:00,
2013-04-30 04:18:00,53.7,51.0,30.01,SSE,157,0.0,1.0,90,0.00,,,0.00,weatherlink.com 1.10,2013-04-30 08:18:00,
2013-04-30 04:33:00,53.3,51.0,30.01,SSE,157,2.0,2.0,90,0.00,,,0.00,weatherlink.com 1.10,2013-04-30 08:33:00,
2013-04-30 04:48:00,52.9,50.0,30.02,SSE,157,0.0,1.0,91,0.00,,,0.00,weatherlink.com 1.10,2013-04-30 08:48:00,
2013-04-30 05:03:00,52.4,50.0,30.01,SSE,157,0.0,2.0,91,0.00,,,0.00,weatherlink.com 1.10,2013-04-30 09:03:00,
2013-04-30 05:18:00,52.2,50.0,30.01,SE,143,1.0,3.0,92,0.00,,,0.00,weatherlink.com 1.10,2013-04-30 09:18:00,
2013-04-30 05:33:00,52.3,50.0,30.01,SE,140,1.0,3.0,92,0.00,,,0.00,weatherlink.com 1.10,2013-04-30 09:33:00,
2013-04-30 05:48:00,52.3,50.0,30.01,SE,140,1.0,4.0,93,0.00,,,0.00,weatherlink.com 1.10,2013-04-30 09:48:00,
2013-04-30 06:03:00,52.4,50.0,30.00,South,177,1.0,3.0,92,0.00,,,0.00,weatherlink.com 1.10,2013-04-30 10:03:00,
2013-04-30 06:18:00,52.3,50.0,30.00,ESE,123,1.0,5.0,93,0.00,,,0.00,weatherlink.com 1.10,2013-04-30 10:18:00,
2013-04-30 06:33:00,52.2,50.0,30.01,SSW,198,1.0,5.0,93,0.00,,,0.00,weatherlink.com 1.10,2013-04-30 10:33:00,
2013-04-30 06:48:00,52.3,50.0,30.02,South,180,1.0,5.0,93,0.00,,,0.00,weatherlink.com 1.10,2013-04-30 10:48:00,
2013-04-30 07:03:00,52.7,51.0,30.04,SSW,194,0.0,5.0,93,0.00,,,0.00,weatherlink.com 1.10,2013-04-30 11:03:00,
2013-04-30 07:18:00,53.3,51.0,30.04,SSW,202,0.0,4.0,93,0.00,,,0.00,weatherlink.com 1.10,2013-04-30 11:18:00,
2013-04-30 07:33:00,53.2,51.0,30.05,SSE,165,1.0,4.0,92,0.00,,,0.00,weatherlink.com 1.10,2013-04-30 11:33:00,
2013-04-30 07:48:00,53.5,51.0,30.05,SSW,200,4.0,7.0,92,0.00,,,0.00,weatherlink.com 1.10,2013-04-30 11:48:00,
2013-04-30 08:03:00,54.6,52.0,30.05,SSW,196,0.0,5.0,91,0.00,,,0.00,weatherlink.com 1.10,2013-04-30 12:03:00,
2013-04-30 08:18:00,55.8,53.0,30.05,SSW,194,2.0,6.0,90,0.00,,,0.00,weatherlink.com 1.10,2013-04-30 12:18:00,
2013-04-30 08:33:00,56.8,53.0,30.06,SSW,213,2.0,7.0,88,0.00,,,0.00,weatherlink.com 1.10,2013-04-30 12:33:00,
2013-04-30 08:48:00,56.9,53.0,30.08,SSE,163,0.0,5.0,87,0.00,,,0.00,weatherlink.com 1.10,2013-04-30 12:48:00,
2013-04-30 09:03:00,57.0,53.0,30.09,SE,140,0.0,3.0,87,0.00,,,0.00,weatherlink.com 1.10,2013-04-30 13:03:00,
2013-04-30 09:18:00,57.5,53.0,30.09,South,169,0.0,3.0,86,0.00,,,0.00,weatherlink.com 1.10,2013-04-30 13:18:00,
2013-04-30 09:33:00,57.6,53.0,30.08,South,169,0.0,3.0,85,0.00,,,0.00,weatherlink.com 1.10,2013-04-30 13:33:00,
2013-04-30 09:48:00,57.4,53.0,30.10,SW,227,0.0,4.0,85,0.00,,,0.00,weatherlink.com 1.10,2013-04-30 13:48:00,
2013-04-30 10:03:00,57.1,53.0,30.10,SSE,159,0.0,2.0,86,0.01,,,0.01,weatherlink.com 1.10,2013-04-30 14:03:00,
2013-04-30 10:18:00,56.6,53.0,30.08,SE,144,4.0,7.0,88,0.01,,,0.01,weatherlink.com 1.10,2013-04-30 14:18:00,
2013-04-30 10:33:00,56.2,53.0,30.10,South,189,2.0,3.0,89,0.02,,,0.02,weatherlink.com 1.10,2013-04-30 14:33:00,
2013-04-30 10:48:00,55.9,53.0,30.09,SSE,155,2.0,3.0,91,0.03,,,0.03,weatherlink.com 1.10,2013-04-30 14:48:00,
2013-04-30 11:03:00,55.9,53.0,30.09,South,175,1.0,4.0,91,0.02,,,0.03,weatherlink.com 1.10,2013-04-30 15:03:00,
2013-04-30 11:18:00,55.7,53.0,30.10,ESE,112,1.0,4.0,91,0.04,,,0.05,weatherlink.com 1.10,2013-04-30 15:18:00,
2013-04-30 11:33:00,55.5,53.0,30.12,SE,136,0.0,3.0,92,0.05,,,0.07,weatherlink.com 1.10,2013-04-30 15:33:00,
2013-04-30 11:48:00,55.5,54.0,30.10,SE,134,3.0,3.0,93,0.06,,,0.09,weatherlink.com 1.10,2013-04-30 15:48:00,
2013-04-30 12:03:00,55.7,54.0,30.09,ESE,102,5.0,10.0,93,0.07,,,0.10,weatherlink.com 1.10,2013-04-30 16:03:00,
2013-04-30 12:18:00,55.8,54.0,30.06,SE,132,4.0,7.0,93,0.05,,,0.10,weatherlink.com 1.10,2013-04-30 16:18:00,
2013-04-30 12:33:00,56.2,54.0,30.09,SSE,168,0.0,6.0,92,0.03,,,0.10,weatherlink.com 1.10,2013-04-30 16:33:00,
2013-04-30 12:48:00,56.5,54.0,30.09,SSE,161,0.0,4.0,92,0.01,,,0.10,weatherlink.com 1.10,2013-04-30 16:48:00,
2013-04-30 13:03:00,57.1,55.0,30.09,SSE,149,2.0,6.0,92,0.00,,,0.10,weatherlink.com 1.10,2013-04-30 17:03:00,
2013-04-30 13:18:00,58.1,56.0,30.08,SSE,157,0.0,7.0,91,0.00,,,0.10,weatherlink.com 1.10,2013-04-30 17:18:00,
2013-04-30 13:33:00,59.8,56.0,30.07,SSW,202,1.0,10.0,87,0.00,,,0.10,weatherlink.com 1.10,2013-04-30 17:33:00,
2013-04-30 13:48:00,61.5,57.0,30.06,South,178,3.0,8.0,84,0.00,,,0.10,weatherlink.com 1.10,2013-04-30 17:48:00,
2013-04-30 14:03:00,63.7,57.0,30.06,SSE,159,3.0,11.0,80,0.01,,,0.11,weatherlink.com 1.10,2013-04-30 18:03:00,
2013-04-30 14:18:00,64.8,57.0,30.05,South,181,5.0,10.0,75,0.01,,,0.11,weatherlink.com 1.10,2013-04-30 18:18:00,
2013-04-30 14:33:00,65.2,57.0,30.05,South,181,2.0,14.0,75,0.01,,,0.11,weatherlink.com 1.10,2013-04-30 18:33:00,
2013-04-30 14:49:00,66.3,57.0,30.05,SE,134,9.0,15.0,71,0.01,,,0.11,weatherlink.com 1.10,2013-04-30 18:49:00,
2013-04-30 15:04:00,67.2,56.0,30.05,SSE,152,3.0,17.0,68,0.00,,,0.11,weatherlink.com 1.10,2013-04-30 19:04:00,
2013-04-30 15:19:00,68.1,57.0,30.05,South,185,2.0,10.0,68,0.00,,,0.11,weatherlink.com 1.10,2013-04-30 19:19:00,
2013-04-30 15:34:00,68.9,57.0,30.05,SSE,154,3.0,14.0,66,0.00,,,0.11,weatherlink.com 1.10,2013-04-30 19:34:00,
2013-04-30 15:49:00,70.8,58.0,30.04,SSE,149,7.0,10.0,65,0.00,,,0.11,weatherlink.com 1.10,2013-04-30 19:49:00,
2013-04-30 16:04:00,71.4,57.0,30.04,SSW,202,7.0,16.0,61,0.00,,,0.11,weatherlink.com 1.10,2013-04-30 20:04:00,
2013-04-30 16:19:00,71.5,56.0,30.04,South,181,4.0,14.0,59,0.00,,,0.11,weatherlink.com 1.10,2013-04-30 20:19:00,
2013-04-30 16:34:00,72.1,57.0,30.03,SE,142,6.0,9.0,59,0.00,,,0.11,weatherlink.com 1.10,2013-04-30 20:34:00,
2013-04-30 16:49:00,72.5,56.0,30.03,SE,138,5.0,13.0,57,0.00,,,0.11,weatherlink.com 1.10,2013-04-30 20:49:00,
2013-04-30 17:04:00,72.9,58.0,30.03,ENE,71,2.0,12.0,59,0.00,,,0.11,weatherlink.com 1.10,2013-04-30 21:04:00,
2013-04-30 17:19:00,73.7,58.0,30.03,East,90,3.0,11.0,58,0.00,,,0.11,weatherlink.com 1.10,2013-04-30 21:19:00,
2013-04-30 17:34:00,73.1,56.0,30.03,SSW,211,5.0,15.0,56,0.00,,,0.11,weatherlink.com 1.10,2013-04-30 21:34:00,
2013-04-30 17:49:00,73.1,56.0,30.03,NNE,12,1.0,9.0,56,0.00,,,0.11,weatherlink.com 1.10,2013-04-30 21:49:00,
2013-04-30 18:04:00,73.3,57.0,30.03,NE,43,2.0,10.0,56,0.00,,,0.11,weatherlink.com 1.10,2013-04-30 22:04:00,
2013-04-30 18:19:00,72.8,57.0,30.03,SSW,210,6.0,8.0,57,0.00,,,0.11,weatherlink.com 1.10,2013-04-30 22:19:00,
2013-04-30 18:34:00,72.4,56.0,30.04,SSE,157,3.0,15.0,57,0.00,,,0.11,weatherlink.com 1.10,2013-04-30 22:34:00,
2013-04-30 18:49:00,72.4,57.0,30.04,SSW,208,4.0,10.0,58,0.00,,,0.11,weatherlink.com 1.10,2013-04-30 22:49:00,
2013-04-30 19:04:00,71.9,56.0,30.04,South,169,2.0,12.0,57,0.00,,,0.11,weatherlink.com 1.10,2013-04-30 23:04:00,
2013-04-30 19:19:00,71.5,55.0,30.04,SSE,153,5.0,14.0,57,0.00,,,0.11,weatherlink.com 1.10,2013-04-30 23:19:00,
2013-04-30 19:34:00,71.0,56.0,30.04,East,101,2.0,9.0,59,0.00,,,0.11,weatherlink.com 1.10,2013-04-30 23:34:00,
2013-04-30 19:49:00,70.5,56.0,30.05,ENE,76,2.0,10.0,60,0.00,,,0.11,weatherlink.com 1.10,2013-04-30 23:49:00,
2013-04-30 20:04:00,69.8,56.0,30.05,SE,126,3.0,7.0,62,0.00,,,0.11,weatherlink.com 1.10,2013-05-01 00:04:00,
2013-04-30 20:19:00,69.2,56.0,30.06,SE,137,2.0,7.0,63,0.00,,,0.11,weatherlink.com 1.10,2013-05-01 00:19:00,
2013-04-30 20:34:00,68.2,55.0,30.06,South,184,1.0,4.0,64,0.00,,,0.11,weatherlink.com 1.10,2013-05-01 00:34:00,
2013-04-30 20:49:00,67.3,56.0,30.07,South,171,3.0,4.0,67,0.00,,,0.11,weatherlink.com 1.10,2013-05-01 00:49:00,
2013-04-30 21:04:00,66.1,56.0,30.08,South,180,1.0,4.0,70,0.00,,,0.11,weatherlink.com 1.10,2013-05-01 01:04:00,
2013-04-30 21:19:00,65.5,56.0,30.08,SSE,162,0.0,4.0,71,0.00,,,0.11,weatherlink.com 1.10,2013-05-01 01:19:00,
2013-04-30 21:34:00,65.0,56.0,30.09,SE,145,1.0,5.0,73,0.00,,,0.11,weatherlink.com 1.10,2013-05-01 01:34:00,
2013-04-30 21:49:00,64.2,56.0,30.09,SE,124,2.0,3.0,74,0.00,,,0.11,weatherlink.com 1.10,2013-05-01 01:49:00,
2013-04-30 22:04:00,63.5,55.0,30.09,SSE,148,1.0,4.0,75,0.00,,,0.11,weatherlink.com 1.10,2013-05-01 02:04:00,
2013-04-30 22:19:00,63.1,55.0,30.10,SSE,149,1.0,3.0,76,0.00,,,0.11,weatherlink.com 1.10,2013-05-01 02:19:00,
2013-04-30 22:34:00,62.4,55.0,30.10,ESE,114,0.0,3.0,77,0.00,,,0.11,weatherlink.com 1.10,2013-05-01 02:34:00,
2013-04-30 22:49:00,61.7,55.0,30.10,SSE,147,0.0,5.0,78,0.00,,,0.11,weatherlink.com 1.10,2013-05-01 02:49:00,
2013-04-30 23:04:00,61.4,55.0,30.10,SSE,148,1.0,2.0,78,0.00,,,0.11,weatherlink.com 1.10,2013-05-01 03:04:00,
2013-04-30 23:19:00,61.1,55.0,30.11,SE,134,3.0,3.0,79,0.00,,,0.11,weatherlink.com 1.10,2013-05-01 03:19:00,
2013-04-30 23:34:00,60.5,54.0,30.11,SSE,159,0.0,4.0,80,0.00,,,0.11,weatherlink.com 1.10,2013-05-01 03:34:00,
2013-04-30 23:49:00,60.1,54.0,30.11,SSE,160,1.0,3.0,80,0.00,,,0.11,weatherlink.com 1.10,2013-05-01 03:49:00,